TimePST,TemperatureF,Dew PointF,Humidity,Sea Level PressureIn,VisibilityMPH,Wind Direction,Wind SpeedMPH,Gust SpeedMPH,PrecipitationIn,Events,Conditions,WindDirDegrees,DateUTC
12:51 AM,30.2,28.4,93,30.09,8.0,WNW,3.5,-,0.00,,Overcast,300,2013-01-07 08:51:00
12:53 AM,30.9,28.9,92,30.11,8.0,WNW,3.5,-,0.00,,Overcast,300,2013-01-07 08:53:00
1:53 AM,30.9,28.9,92,30.11,7.0,Calm,Calm,-,0.01,Rain,Light Freezing Rain,0,2013-01-07 09:53:00
2:10 AM,30.2,28.4,93,30.09,5.0,Calm,Calm,-,0.01,Rain,Light Freezing Rain,0,2013-01-07 10:10:00
2:53 AM,30.9,30.0,96,30.10,5.0,Calm,Calm,-,0.05,Rain,Light Freezing Rain,0,2013-01-07 10:53:00
3:53 AM,30.9,30.0,96,30.08,4.0,SE,3.5,-,0.05,Rain,Light Freezing Rain,130,2013-01-07 11:53:00
4:42 AM,32.0,32.0,100,30.03,4.0,SE,5.8,-,0.03,,Overcast,140,2013-01-07 12:42:00
4:53 AM,32.0,32.0,100,30.04,5.0,SE,4.6,-,0.03,,Overcast,140,2013-01-07 12:53:00
5:53 AM,33.1,32.0,96,30.01,4.0,SE,4.6,-,0.03,Rain,Light Rain,140,2013-01-07 13:53:00
6:53 AM,33.1,32.0,96,29.98,4.0,Calm,Calm,-,0.00,Rain,Light Rain,0,2013-01-07 14:53:00
7:32 AM,32.0,32.0,100,29.95,2.5,NW,6.9,-,0.00,Rain,Light Rain,310,2013-01-07 15:32:00
7:53 AM,32.0,30.9,96,29.98,3.0,NW,8.1,-,0.02,,Overcast,310,2013-01-07 15:53:00
8:01 AM,32.0,32.0,100,29.97,2.0,WNW,6.9,-,0.00,,Overcast,300,2013-01-07 16:01:00
8:12 AM,32.0,30.2,93,29.97,2.0,WNW,8.1,-,0.01,,Overcast,300,2013-01-07 16:12:00
8:29 AM,32.0,30.2,93,29.96,3.0,WNW,5.8,-,0.02,,Overcast,300,2013-01-07 16:29:00
8:33 AM,32.0,30.2,93,29.97,2.0,WNW,4.6,-,0.03,,Overcast,300,2013-01-07 16:33:00
8:53 AM,32.0,32.0,100,29.98,2.5,Calm,Calm,-,0.04,,Overcast,0,2013-01-07 16:53:00
9:53 AM,32.0,32.0,100,29.97,2.5,Calm,Calm,-,0.00,,Scattered Clouds,0,2013-01-07 17:53:00
10:00 AM,32.0,32.0,100,29.96,4.0,Calm,Calm,-,N/A,,Partly Cloudy,0,2013-01-07 18:00:00
10:08 AM,33.8,32.0,93,29.96,2.5,SW,3.5,-,N/A,,Partly Cloudy,220,2013-01-07 18:08:00
11:53 AM,42.1,37.0,82,29.93,10.0,Calm,Calm,-,N/A,,Clear,0,2013-01-07 19:53:00
12:53 PM,46.9,39.0,74,29.91,10.0,SW,11.5,-,N/A,,Clear,230,2013-01-07 20:53:00
1:53 PM,51.1,41.0,68,29.90,10.0,SW,20.7,26.5,N/A,,Clear,220,2013-01-07 21:53:00
3:53 PM,50.0,41.0,71,29.94,10.0,SSW,23.0,32.2,N/A,,Clear,210,2013-01-07 23:53:00
4:53 PM,48.9,39.9,71,29.95,10.0,SW,17.3,25.3,N/A,,Clear,220,2013-01-08 00:53:00
5:53 PM,48.9,39.0,69,29.96,10.0,SW,13.8,-,N/A,,Clear,220,2013-01-08 01:53:00
6:53 PM,48.9,37.9,66,29.98,10.0,SW,25.3,33.4,N/A,,Clear,220,2013-01-08 02:53:00
7:53 PM,46.9,37.9,71,29.99,10.0,WSW,24.2,31.1,N/A,,Clear,240,2013-01-08 03:53:00
8:53 PM,48.0,37.9,68,30.01,10.0,SW,21.9,27.6,N/A,,Clear,230,2013-01-08 04:53:00
9:53 PM,48.0,37.9,68,30.03,10.0,SW,15.0,24.2,N/A,,Scattered Clouds,230,2013-01-08 05:53:00
10:53 PM,48.0,37.9,68,30.07,10.0,WSW,19.6,26.5,N/A,,Partly Cloudy,240,2013-01-08 06:53:00
11:53 PM,46.9,37.0,68,30.08,10.0,WSW,20.7,-,N/A,,Clear,240,2013-01-08 07:53:00